| time (UTC) | temp F | wind direction | speed knots | gust knots | rain 1hr in | rain 24hr in | rain mn in | humidity % | barometer mb |
| 20260505153051 | 48 | 168 | 8.7 | 20.9 | 0.00 | 0.10 | 0.10 | 69 | 1003.6 |
| 20260505151553 | 48 | 163 | 9.6 | 17.4 | 0.00 | 0.10 | 0.10 | 69 | 1003.4 |
| 20260505140126 | 49 | 143 | 7.8 | 15.6 | 0.00 | 0.10 | 0.10 | 67 | 1002.6 |
| 20260505130117 | 49 | 201 | 3.5 | 10.4 | 0.00 | 0.10 | 0.10 | 80 | 1001.9 |
| 20260505124605 | 48 | 200 | 3.5 | 11.3 | 0.00 | 0.10 | 0.10 | 81 | 1001.7 |
| 20260505123101 | 47 | 233 | 0.9 | 4.3 | 0.00 | 0.10 | 0.10 | 83 | 1001.5 |
| 20260505121557 | 47 | 242 | 2.6 | 7.0 | 0.00 | 0.10 | 0.10 | 81 | 1001.5 |
| 20260505120113 | 47 | 254 | 3.5 | 7.0 | 0.02 | 0.10 | 0.10 | 81 | 1001.4 |
| 20260505114603 | 47 | 270 | 5.2 | 12.2 | 0.04 | 0.10 | 0.10 | 81 | 1001.3 |
| 20260505113103 | 48 | 258 | 9.6 | 16.5 | 0.08 | 0.10 | 0.10 | 81 | 1001.3 |
| 20260505111602 | 48 | 232 | 9.6 | 13.0 | 0.10 | 0.10 | 0.10 | 84 | 1001.4 |
| 20260505110110 | 48 | 237 | 7.8 | 12.2 | 0.07 | 0.07 | 0.07 | 83 | 1001.6 |
| 20260505101607 | 50 | 234 | 1.7 | 4.3 | 0.00 | 0.00 | 0.00 | 74 | 1001.5 |
| 20260505100114 | 50 | 287 | 0.0 | 5.2 | 0.00 | 0.00 | 0.00 | 77 | 1001.7 |
| 20260505094622 | 49 | 269 | 2.6 | 6.1 | 0.00 | 0.00 | 0.00 | 78 | 1001.6 |
| 20260505093004 | 49 | 267 | 2.6 | 5.2 | 0.00 | 0.00 | 0.00 | 78 | 1001.6 |
| 20260505091507 | 50 | 267 | 2.6 | 5.2 | 0.00 | 0.00 | 0.00 | 76 | 1001.6 |
| 20260505090010 | 51 | 265 | 0.9 | 5.2 | 0.00 | 0.00 | 0.00 | 72 | 1001.7 |
| 20260505084522 | 51 | 296 | 0.9 | 7.8 | 0.00 | 0.00 | 0.00 | 71 | 1001.9 |
| 20260505083020 | 52 | 229 | 1.7 | 10.4 | 0.00 | 0.00 | 0.00 | 66 | 1002.0 |
| 20260505081515 | 52 | 200 | 1.7 | 9.6 | 0.00 | 0.00 | 0.00 | 64 | 1002.0 |
| 20260505080020 | 53 | 162 | 5.2 | 12.2 | 0.00 | 0.00 | 0.00 | 62 | 1001.9 |
| 20260505074514 | 53 | 157 | 7.0 | 13.0 | 0.00 | 0.00 | 0.00 | 60 | 1001.8 |
| 20260505073042 | 53 | 184 | 7.8 | 13.9 | 0.00 | 0.00 | 0.00 | 58 | 1001.9 |
| 20260505071510 | 54 | 205 | 7.8 | 20.0 | 0.00 | 0.00 | 0.00 | 56 | 1001.7 |
| 20260505070003 | 53 | 189 | 10.4 | 22.6 | 0.00 | 0.00 | 0.00 | 58 | 1001.7 |
| 20260505064625 | 53 | 143 | 9.6 | 16.5 | 0.00 | 0.00 | 0.00 | 59 | 1001.7 |
| 20260505063006 | 53 | 179 | 9.6 | 20.9 | 0.00 | 0.00 | 0.00 | 60 | 1001.6 |
| 20260505061510 | 53 | 213 | 16.5 | 24.3 | 0.00 | 0.00 | 0.00 | 60 | 1001.6 |
| 20260505060008 | 53 | 207 | 13.0 | 26.1 | 0.00 | 0.00 | 0.00 | 60 | 1001.6 |
| 20260505054513 | 54 | 163 | 14.8 | 28.7 | 0.00 | 0.00 | 0.00 | 59 | 1001.6 |
| 20260505053016 | 55 | 222 | 13.0 | 24.3 | 0.00 | 0.00 | 0.00 | 57 | 1001.4 |
| 20260505051523 | 54 | 200 | 12.2 | 22.6 | 0.00 | 0.00 | 0.00 | 58 | 1001.3 |
| 20260505041559 | 56 | 203 | 8.7 | 13.9 | 0.00 | 0.00 | 0.00 | 50 | 1000.6 |
| 20260505040059 | 55 | 193 | 4.3 | 8.7 | 0.00 | 0.00 | 0.00 | 54 | 1000.4 |
| 20260505034550 | 55 | 214 | 0.9 | 7.0 | 0.00 | 0.00 | 0.00 | 53 | 1000.3 |
| 20260505033022 | 57 | 214 | 0.9 | 7.8 | 0.00 | 0.00 | 0.00 | 51 | 1000.1 |
| 20260505031543 | 58 | 168 | 2.6 | 12.2 | 0.00 | 0.00 | 0.00 | 48 | 1000.0 |
| 20260505030042 | 58 | 194 | 6.1 | 15.6 | 0.00 | 0.00 | 0.00 | 46 | 999.8 |
| 20260505024556 | 59 | 216 | 7.8 | 13.0 | 0.00 | 0.00 | 0.00 | 45 | 999.6 |
| 20260505023048 | 60 | 221 | 7.8 | 12.2 | 0.00 | 0.00 | 0.00 | 44 | 999.5 |
| 20260505021555 | 61 | 173 | 6.1 | 13.0 | 0.00 | 0.00 | 0.00 | 43 | 999.3 |
| 20260505020051 | 62 | 144 | 7.0 | 16.5 | 0.00 | 0.00 | 0.00 | 40 | 999.3 |
| 20260505014607 | 64 | 188 | 0.0 | 1.7 | 0.00 | 0.00 | 0.00 | 37 | 999.3 |
| 20260505013059 | 64 | 207 | 0.0 | 3.5 | 0.00 | 0.00 | 0.00 | 36 | 999.4 |
| 20260505011608 | 65 | 96 | 0.0 | 0.0 | 0.00 | 0.00 | 0.00 | 37 | 999.5 |
| 20260505010055 | 65 | 90 | 0.0 | 3.5 | 0.00 | 0.00 | 0.00 | 37 | 999.7 |
| 20260505004554 | 64 | 100 | 0.0 | 5.2 | 0.00 | 0.00 | 0.00 | 37 | 999.9 |
| 20260505003042 | 64 | 71 | 2.6 | 9.6 | 0.00 | 0.00 | 0.00 | 37 | 999.8 |
| 20260505001518 | 65 | 86 | 4.3 | 9.6 | 0.00 | 0.00 | 0.00 | 36 | 999.9 |
| 20260505000050 | 65 | 94 | 5.2 | 10.4 | 0.00 | 0.00 | 0.00 | 35 | 999.9 |
| 20260504234548 | 66 | 115 | 0.9 | 9.6 | 0.00 | 0.00 | 0.00 | 33 | 1000.0 |
| 20260504233105 | 66 | 135 | 0.9 | 8.7 | 0.00 | 0.00 | 0.00 | 35 | 1000.3 |
| 20260504231601 | 66 | 113 | 5.2 | 10.4 | 0.00 | 0.00 | 0.00 | 33 | 1000.3 |
| 20260504230105 | 67 | 103 | 3.5 | 7.8 | 0.00 | 0.00 | 0.00 | 33 | 1000.0 |
| 20260504224614 | 67 | 288 | 4.3 | 11.3 | 0.00 | 0.00 | 0.00 | 30 | 1000.1 |
| 20260504223135 | 65 | 275 | 6.1 | 13.9 | 0.00 | 0.00 | 0.00 | 33 | 1000.0 |
| 20260504221623 | 64 | 271 | 9.6 | 17.4 | 0.00 | 0.00 | 0.00 | 35 | 1000.0 |
| 20260504220010 | 63 | 270 | 14.8 | 22.6 | 0.00 | 0.00 | 0.00 | 37 | 1000.1 |
| 20260504214514 | 62 | 285 | 13.9 | 23.5 | 0.00 | 0.00 | 0.00 | 39 | 1000.3 |
| 20260504213049 | 62 | 304 | 12.2 | 21.7 | 0.00 | 0.00 | 0.00 | 38 | 1000.3 |
| 20260504211540 | 64 | 283 | 15.6 | 22.6 | 0.00 | 0.00 | 0.00 | 34 | 1000.4 |
| 20260504210049 | 65 | 261 | 7.8 | 16.5 | 0.00 | 0.00 | 0.00 | 30 | 1000.6 |
| 20260504204553 | 66 | 265 | 8.7 | 15.6 | 0.00 | 0.00 | 0.00 | 28 | 1000.6 |
| 20260504203109 | 66 | 246 | 7.8 | 13.9 | 0.00 | 0.00 | 0.00 | 30 | 1000.6 |
| 20260504201606 | 67 | 239 | 7.8 | 13.0 | 0.00 | 0.00 | 0.00 | 32 | 1000.7 |
| 20260504200126 | 68 | 271 | 3.5 | 7.0 | 0.00 | 0.00 | 0.00 | 31 | 1000.7 |
| 20260504194612 | 68 | 179 | 0.9 | 8.7 | 0.00 | 0.00 | 0.00 | 32 | 1000.8 |
| 20260504193116 | 69 | 212 | 1.7 | 9.6 | 0.00 | 0.00 | 0.00 | 30 | 1001.0 |
| 20260504191608 | 70 | 205 | 1.7 | 12.2 | 0.00 | 0.00 | 0.00 | 28 | 1001.0 |
| 20260504190105 | 70 | 144 | 1.7 | 11.3 | 0.00 | 0.00 | 0.00 | 29 | 1001.3 |
| 20260504184609 | 68 | 241 | 6.1 | 10.4 | 0.00 | 0.00 | 0.00 | 29 | 1001.5 |
| 20260504183116 | 67 | 165 | 6.1 | 13.9 | 0.00 | 0.00 | 0.00 | 33 | 1001.4 |
| 20260504181616 | 67 | 144 | 5.2 | 11.3 | 0.00 | 0.00 | 0.00 | 35 | 1001.7 |
| 20260504180108 | 68 | 200 | 4.3 | 13.0 | 0.00 | 0.00 | 0.00 | 33 | 1001.7 |
| 20260504174619 | 69 | 138 | 8.7 | 13.9 | 0.00 | 0.00 | 0.00 | 33 | 1001.8 |
| 20260504173051 | 68 | 187 | 6.1 | 17.4 | 0.00 | 0.00 | 0.00 | 34 | 1001.9 |
| 20260504171527 | 68 | 128 | 9.6 | 13.9 | 0.00 | 0.00 | 0.00 | 34 | 1002.0 |